Aérodrome :
LOGIN :

S'inscrire | Disclaimer

   EN    FR    IT 

 










Légende :    VFR   VFR Marginal   IFR   IFR Intensif   IFR Très Intensif
Visi : 
Plafond : 
>= 8 km
>= 3000ft
5 à 8 km
1000 à 3000 ft
1500m à 5 km
500 à 1000 ft
800 à 1500m
200 à 500 ft
< 800m
< 200 ft
Symboles :   Orages  Brouillard  Fortes neiges  Fortes précipitations  Vent > 20 kt
SIGMETs :   Divers  Orages  Givrage  Turbulence  Onde Orograph.  Cendres Volcan.







- Altitude de l'aérodrome : 1161 ft
- Code IATA : RJL


LELO - Logroño-Agoncillo

DERNIER METAR :
  • 201000Z 08011KT 050V110 CAVOK 18/11 Q1023

METARs EXPIRÉS :
  • 200900Z 08011KT 040V110 CAVOK 17/10 Q1023
  • 200800Z 09008KT 050V120 CAVOK 15/10 Q1023

TAF TAF LELO
Valide du 20 à 09h jusqu'au 20 à 18h UTC


200800Z 2009/2018 12013KT 9999 FEW040
TEMPO 2010/2018 12018G28KT
PROB30
TEMPO 2013/2018 FEW040TCU
Pas de NOTAMs connus pour ce terrain.



MET'MAP, la Météo Aéronautique d'un coup d'oeil ! - Copyright ORBIFLY Décembre 2007 - Disclaimer

ORBIFLY MET'MAP TEAM :

Programmation & Développement : Alexandra Zaïnal
Conception & Développement : Baudouin d'Aumeries
Co-Programmation & Développement : Marc-Olivier Méhu
Soutien technique & logistique : Manuel Goepfert

Contact : metmap@orbifly.com




SOURCES & CREDITS :

   NOAA